GPS IIF-10

operational
NORAD ID: 40730 Int'l Des: 2015-033 Owner: AFSMC Country: US Constellation: GPS
MEOGNSS

About GPS IIF-10

Description loading...

Live Position

Loading 3D Globe...

Upcoming Passes

Altitude History

Altitude vs Time

uPlot chart will show altitude changes over time

Two-Line Element Set

1 40730U 15033A 25297.89062240 -.00000016 00000-0 00000-0 0 9990
2 40730 54.1724 276.7818 0107904 25.7563 334.7618 2.00568169 75277
Epoch: Oct 24, 2025 • Age: 16 hours

Current Status

Altitude 20170.4 km
Velocity 3.88 km/s
Sub-Earth Point 48.36°N, 172.87°E
Launch Date Jul 15, 2015
Age 10.2 years
Type navigation

Technical Details

Classification Payload
Mass 1630.00 kg
Dry Mass 1500.00 kg
Total Mass 1630.00 kg
Length 2.50 m
Diameter 1.80 m
Span 18.00 m
Shape Box + 2 Pan
Manufacturer BOES
Bus Type GPS IIF
Phase Status In Orbit
Owner/State AFSMC/US

Large Constellations

Loading constellations...